ARKTIKA-M 2

Last updated on Wed Oct 29 2025 00:02:22 GMT+0000 (Coordinated Universal Time)

1 58584U 23198A 25300.47014159 .00000154 00000+0 00000+0 0 9992 2 58584 63.2270 179.9212 6863194 268.2851 18.8164 2.00598966 13650
UTC large
Height (km)
Speed (km/s)
/
Latitude / Longitude
Inclination (degrees)
Orbital Period (minutes)
Azimuth
Elevation
Range (km)
Doppler Factor

Next 0 passes for location: London (51.5072 / 0.1276)

Sorry there are no passes over London.